| time (UTC) | temp F | wind direction | speed MPH | gust MPH | rain 1hr in | rain 24hr in | rain mn in | humidity % | barometer mb |
| 20260903164901 | 80 | 149 | 2.0 | 5.0 | 0.00 | 0.00 | 0.00 | 74 | 1007.6 |
| 20260903163902 | 80 | 73 | 0.0 | 0.0 | 0.00 | 0.00 | 0.00 | 75 | 1007.6 |
| 20260903162902 | 79 | 188 | 2.0 | 4.0 | 0.00 | 0.00 | 0.00 | 76 | 1007.5 |
| 20260903161932 | 78 | 127 | 1.0 | 4.0 | 0.00 | 0.00 | 0.00 | 78 | 1007.5 |
| 20260903160902 | 78 | 106 | 2.0 | 4.0 | 0.00 | 0.00 | 0.00 | 79 | 1007.4 |
| 20260903155903 | 77 | 145 | 1.0 | 2.0 | 0.00 | 0.00 | 0.00 | 80 | 1007.3 |
| 20260903154901 | 77 | 67 | 2.0 | 4.0 | 0.00 | 0.00 | 0.00 | 81 | 1007.5 |
| 20260903153902 | 77 | 199 | 1.0 | 4.0 | 0.00 | 0.00 | 0.00 | 80 | 1007.9 |
| 20260903153002 | 77 | 196 | 2.0 | 4.0 | 0.00 | 0.00 | 0.00 | 80 | 1007.6 |
| 20260903151902 | 77 | 95 | 1.0 | 3.0 | 0.00 | 0.00 | 0.00 | 81 | 1007.5 |
| 20260903150903 | 77 | 159 | 1.0 | 2.0 | 0.00 | 0.00 | 0.00 | 81 | 1007.5 |
| 20260903145901 | 76 | 171 | 3.0 | 6.0 | 0.00 | 0.00 | 0.00 | 82 | 1007.5 |
| 20260903144902 | 76 | 93 | 0.0 | 1.0 | 0.00 | 0.00 | 0.00 | 83 | 1007.5 |
| 20260903143903 | 76 | 97 | 0.0 | 2.0 | 0.00 | 0.00 | 0.00 | 83 | 1007.6 |
| 20260903142901 | 75 | 210 | 2.0 | 3.0 | 0.00 | 0.00 | 0.00 | 84 | 1007.4 |
| 20260903141902 | 75 | 187 | 1.0 | 2.0 | 0.00 | 0.00 | 0.00 | 86 | 1007.4 |
| 20260903140902 | 74 | 79 | 1.0 | 3.0 | 0.00 | 0.00 | 0.00 | 87 | 1007.6 |
| 20260903135902 | 74 | 78 | 2.0 | 4.0 | 0.00 | 0.00 | 0.00 | 87 | 1007.5 |
| 20260903134903 | 73 | 103 | 1.0 | 3.0 | 0.00 | 0.00 | 0.00 | 88 | 1007.6 |
| 20260903133902 | 73 | 103 | 1.0 | 2.0 | 0.00 | 0.00 | 0.00 | 89 | 1007.7 |
| 20260903132902 | 72 | 79 | 1.0 | 1.0 | 0.00 | 0.00 | 0.00 | 89 | 1007.6 |
| 20260903131902 | 72 | 95 | 1.0 | 2.0 | 0.00 | 0.00 | 0.00 | 89 | 1007.5 |
| 20260903130903 | 72 | 20 | 0.0 | 2.0 | 0.00 | 0.00 | 0.00 | 89 | 1007.6 |
| 20260903125901 | 72 | 116 | 1.0 | 4.0 | 0.00 | 0.00 | 0.00 | 90 | 1007.6 |
| 20260903124903 | 72 | 77 | 0.0 | 1.0 | 0.00 | 0.00 | 0.00 | 90 | 1007.6 |
| 20260903123902 | 72 | 201 | 1.0 | 2.0 | 0.00 | 0.00 | 0.00 | 90 | 1007.4 |
| 20260903122902 | 72 | 121 | 1.0 | 2.0 | 0.00 | 0.00 | 0.00 | 90 | 1007.3 |
| 20260903121902 | 73 | 232 | 1.0 | 2.0 | 0.00 | 0.00 | 0.00 | 90 | 1007.6 |
| 20260903120932 | 73 | 107 | 1.0 | 2.0 | 0.00 | 0.00 | 0.00 | 93 | 1007.7 |
| 20260903120001 | 73 | 107 | 1.0 | 2.0 | 0.00 | 0.00 | 0.00 | 93 | 1007.7 |
| 20260903114902 | 73 | 107 | 1.0 | 2.0 | 0.00 | 0.00 | 0.00 | 93 | 1007.7 |
| 20260903113902 | 73 | 107 | 1.0 | 2.0 | 0.00 | 0.00 | 0.00 | 93 | 1007.7 |
| 20260903112902 | 73 | 107 | 1.0 | 2.0 | 0.00 | 0.00 | 0.00 | 93 | 1007.7 |
| 20260903111902 | 73 | 107 | 1.0 | 2.0 | 0.00 | 0.00 | 0.00 | 93 | 1007.7 |
| 20260903110902 | 73 | 107 | 1.0 | 2.0 | 0.00 | 0.00 | 0.00 | 93 | 1007.7 |
| 20260903105902 | 73 | 86 | 2.0 | 3.0 | 0.00 | 0.00 | 0.00 | 93 | 1007.7 |
| 20260903104902 | 72 | 82 | 1.0 | 2.0 | 0.00 | 0.00 | 0.00 | 92 | 1007.9 |
| 20260903103901 | 72 | 174 | 0.0 | 1.0 | 0.00 | 0.00 | 0.00 | 92 | 1007.9 |
| 20260903102903 | 72 | 98 | 0.0 | 1.0 | 0.00 | 0.00 | 0.00 | 92 | 1007.8 |
| 20260903101902 | 72 | 70 | 0.0 | 1.0 | 0.00 | 0.00 | 0.00 | 92 | 1007.6 |
| 20260903100902 | 72 | 93 | 0.0 | 1.0 | 0.00 | 0.00 | 0.00 | 92 | 1007.4 |
| 20260903095932 | 72 | 68 | 0.0 | 1.0 | 0.00 | 0.00 | 0.00 | 91 | 1007.3 |
| 20260903094933 | 72 | 78 | 0.0 | 1.0 | 0.00 | 0.00 | 0.00 | 91 | 1007.4 |
| 20260903093903 | 72 | 81 | 1.0 | 2.0 | 0.00 | 0.00 | 0.00 | 91 | 1007.3 |
| 20260903092932 | 72 | 77 | 2.0 | 4.0 | 0.00 | 0.00 | 0.00 | 91 | 1007.3 |
| 20260903091932 | 73 | 74 | 3.0 | 3.0 | 0.00 | 0.00 | 0.00 | 90 | 1007.3 |
| 20260903090932 | 73 | 71 | 3.0 | 4.0 | 0.00 | 0.00 | 0.00 | 90 | 1007.2 |
| 20260903085902 | 73 | 69 | 0.0 | 0.0 | 0.00 | 0.00 | 0.00 | 90 | 1007.1 |
| 20260903084902 | 73 | 78 | 0.0 | 0.0 | 0.00 | 0.00 | 0.00 | 89 | 1007.3 |
| 20260903083903 | 73 | 72 | 0.0 | 0.0 | 0.00 | 0.00 | 0.00 | 89 | 1007.3 |
| 20260903082902 | 73 | 83 | 0.0 | 0.0 | 0.00 | 0.00 | 0.00 | 89 | 1007.2 |
| 20260903081902 | 73 | 71 | 0.0 | 0.0 | 0.00 | 0.00 | 0.00 | 88 | 1007.1 |
| 20260903080902 | 74 | 70 | 0.0 | 0.0 | 0.00 | 0.00 | 0.00 | 88 | 1007.3 |
| 20260903075902 | 74 | 62 | 0.0 | 0.0 | 0.00 | 0.00 | 0.00 | 88 | 1007.5 |
| 20260903075002 | 74 | 57 | 0.0 | 0.0 | 0.00 | 0.00 | 0.00 | 87 | 1007.5 |
| 20260903074002 | 74 | 71 | 1.0 | 2.0 | 0.00 | 0.00 | 0.00 | 87 | 1007.4 |
| 20260903072902 | 74 | 76 | 2.0 | 3.0 | 0.00 | 0.00 | 0.00 | 87 | 1007.7 |
| 20260903071902 | 74 | 59 | 1.0 | 1.0 | 0.00 | 0.00 | 0.00 | 87 | 1007.8 |
| 20260903070902 | 74 | 52 | 1.0 | 2.0 | 0.00 | 0.00 | 0.00 | 86 | 1007.8 |
| 20260903065902 | 74 | 69 | 1.0 | 2.0 | 0.00 | 0.00 | 0.00 | 86 | 1007.9 |
| 20260903064902 | 75 | 78 | 2.0 | 3.0 | 0.00 | 0.00 | 0.00 | 85 | 1007.9 |
| 20260903063932 | 75 | 70 | 2.0 | 3.0 | 0.00 | 0.00 | 0.00 | 85 | 1007.8 |
| 20260903062902 | 75 | 72 | 2.0 | 3.0 | 0.00 | 0.00 | 0.00 | 85 | 1007.9 |
| 20260903061902 | 75 | 72 | 3.0 | 4.0 | 0.00 | 0.00 | 0.00 | 84 | 1008.0 |
| 20260903060902 | 76 | 70 | 2.0 | 3.0 | 0.00 | 0.00 | 0.00 | 84 | 1008.0 |
| 20260903055932 | 76 | 67 | 2.0 | 3.0 | 0.00 | 0.00 | 0.00 | 83 | 1008.0 |
| 20260903054902 | 76 | 76 | 2.0 | 5.0 | 0.00 | 0.00 | 0.00 | 83 | 1008.0 |
| 20260903053932 | 76 | 76 | 2.0 | 3.0 | 0.00 | 0.00 | 0.00 | 82 | 1007.9 |
| 20260903052902 | 76 | 77 | 2.0 | 4.0 | 0.00 | 0.00 | 0.00 | 82 | 1007.9 |
| 20260903051932 | 77 | 69 | 3.0 | 4.0 | 0.00 | 0.00 | 0.00 | 82 | 1008.0 |
| 20260903050932 | 77 | 79 | 2.0 | 4.0 | 0.00 | 0.00 | 0.00 | 81 | 1008.1 |
| 20260903045902 | 77 | 84 | 2.0 | 4.0 | 0.00 | 0.00 | 0.06 | 81 | 1008.2 |
| 20260903045003 | 77 | 79 | 2.0 | 3.0 | 0.00 | 0.00 | 0.06 | 81 | 1008.3 |
| 20260903043901 | 77 | 84 | 1.0 | 4.0 | 0.00 | 0.00 | 0.06 | 80 | 1008.2 |
| 20260903042903 | 77 | 69 | 3.0 | 4.0 | 0.00 | 0.00 | 0.06 | 80 | 1008.2 |
| 20260903041901 | 78 | 66 | 2.0 | 3.0 | 0.00 | 0.00 | 0.06 | 80 | 1008.2 |
| 20260903040901 | 78 | 70 | 4.0 | 5.0 | 0.00 | 0.00 | 0.06 | 80 | 1008.2 |
| 20260903035902 | 78 | 70 | 3.0 | 4.0 | 0.00 | 0.00 | 0.06 | 80 | 1008.4 |
| 20260903034902 | 78 | 68 | 4.0 | 6.0 | 0.00 | 0.00 | 0.06 | 80 | 1008.5 |
| 20260903033902 | 78 | 73 | 3.0 | 4.0 | 0.00 | 0.00 | 0.06 | 80 | 1008.5 |
| 20260903032902 | 78 | 75 | 3.0 | 4.0 | 0.00 | 0.00 | 0.06 | 79 | 1008.5 |
| 20260903031902 | 79 | 70 | 3.0 | 4.0 | 0.00 | 0.00 | 0.06 | 79 | 1008.4 |
| 20260903030902 | 79 | 70 | 4.0 | 6.0 | 0.00 | 0.00 | 0.06 | 78 | 1008.5 |
| 20260903025902 | 79 | 77 | 4.0 | 8.0 | 0.00 | 0.00 | 0.06 | 78 | 1008.5 |
| 20260903024903 | 79 | 76 | 4.0 | 7.0 | 0.00 | 0.00 | 0.06 | 76 | 1008.4 |
| 20260903023901 | 80 | 68 | 4.0 | 7.0 | 0.00 | 0.00 | 0.06 | 76 | 1008.4 |
| 20260903022902 | 80 | 69 | 4.0 | 5.0 | 0.00 | 0.00 | 0.06 | 75 | 1008.4 |
| 20260903022003 | 80 | 67 | 3.0 | 4.0 | 0.00 | 0.00 | 0.06 | 75 | 1008.4 |
| 20260903020903 | 80 | 71 | 0.0 | 1.0 | 0.00 | 0.00 | 0.06 | 74 | 1008.4 |
| 20260903015901 | 80 | 70 | 0.0 | 0.0 | 0.00 | 0.00 | 0.06 | 74 | 1008.3 |
| 20260903014902 | 81 | 71 | 0.0 | 0.0 | 0.00 | 0.00 | 0.06 | 73 | 1008.2 |
| 20260903013902 | 81 | 71 | 0.0 | 0.0 | 0.00 | 0.00 | 0.06 | 72 | 1008.0 |
| 20260903012903 | 81 | 84 | 1.0 | 1.0 | 0.00 | 0.00 | 0.06 | 72 | 1007.9 |
| 20260903011901 | 82 | 76 | 1.0 | 2.0 | 0.00 | 0.00 | 0.06 | 71 | 1007.8 |
| 20260903010902 | 82 | 67 | 0.0 | 1.0 | 0.00 | 0.00 | 0.06 | 71 | 1007.7 |
| 20260903005902 | 82 | 95 | 0.0 | 1.0 | 0.00 | 0.00 | 0.06 | 70 | 1007.6 |
| 20260903004902 | 83 | 69 | 0.0 | 1.0 | 0.00 | 0.00 | 0.06 | 69 | 1007.7 |
| 20260903004002 | 83 | 77 | 0.0 | 1.0 | 0.00 | 0.00 | 0.06 | 68 | 1007.8 |
| 20260903002902 | 83 | 76 | 0.0 | 1.0 | 0.00 | 0.00 | 0.06 | 67 | 1007.7 |
| 20260903001903 | 84 | 113 | 0.0 | 0.0 | 0.00 | 0.00 | 0.06 | 66 | 1007.6 |
| 20260903000902 | 84 | 113 | 0.0 | 0.0 | 0.00 | 0.00 | 0.06 | 65 | 1007.5 |
| 20260902235932 | 84 | 203 | 0.0 | 0.0 | 0.00 | 0.00 | 0.06 | 65 | 1007.6 |
| 20260902234932 | 85 | 202 | 0.0 | 0.0 | 0.00 | 0.00 | 0.06 | 64 | 1007.8 |
| 20260902233933 | 85 | 125 | 0.0 | 1.0 | 0.00 | 0.00 | 0.06 | 63 | 1007.8 |
| 20260902232902 | 85 | 102 | 0.0 | 1.0 | 0.00 | 0.00 | 0.06 | 62 | 1007.8 |
| 20260902231902 | 85 | 120 | 0.0 | 0.0 | 0.00 | 0.00 | 0.06 | 61 | 1007.8 |
| 20260902230902 | 86 | 151 | 0.0 | 0.0 | 0.00 | 0.00 | 0.06 | 61 | 1007.8 |
| 20260902225902 | 86 | 98 | 1.0 | 2.0 | 0.00 | 0.00 | 0.06 | 61 | 1007.7 |
| 20260902224902 | 86 | 73 | 4.0 | 6.0 | 0.00 | 0.00 | 0.06 | 61 | 1007.8 |
| 20260902223932 | 86 | 188 | 0.0 | 1.0 | 0.00 | 0.00 | 0.06 | 60 | 1007.8 |
| 20260902222902 | 86 | 13 | 0.0 | 0.0 | 0.00 | 0.00 | 0.06 | 60 | 1007.8 |
| 20260902221902 | 86 | 230 | 0.0 | 2.0 | 0.00 | 0.00 | 0.06 | 59 | 1007.8 |
| 20260902220902 | 86 | 69 | 3.0 | 5.0 | 0.00 | 0.00 | 0.06 | 59 | 1007.9 |
| 20260902215902 | 86 | 43 | 0.0 | 2.0 | 0.00 | 0.00 | 0.06 | 59 | 1007.9 |
| 20260902214902 | 86 | 151 | 1.0 | 2.0 | 0.00 | 0.00 | 0.06 | 59 | 1007.9 |
| 20260902213902 | 86 | 67 | 3.0 | 4.0 | 0.00 | 0.00 | 0.06 | 59 | 1007.9 |
| 20260902212902 | 86 | 99 | 2.0 | 4.0 | 0.00 | 0.00 | 0.06 | 58 | 1008.0 |
| 20260902211902 | 86 | 73 | 2.0 | 4.0 | 0.00 | 0.00 | 0.06 | 59 | 1008.0 |
| 20260902210902 | 86 | 54 | 1.0 | 3.0 | 0.00 | 0.00 | 0.06 | 59 | 1008.0 |
| 20260902205902 | 86 | 161 | 1.0 | 3.0 | 0.00 | 0.00 | 0.06 | 58 | 1008.1 |
| 20260902204902 | 87 | 94 | 1.0 | 3.0 | 0.00 | 0.00 | 0.06 | 58 | 1008.0 |
| 20260902203932 | 87 | 206 | 0.0 | 0.0 | 0.00 | 0.00 | 0.06 | 56 | 1008.1 |
| 20260902202902 | 88 | 98 | 1.0 | 3.0 | 0.00 | 0.00 | 0.06 | 56 | 1008.2 |
| 20260902201902 | 88 | 88 | 1.0 | 2.0 | 0.00 | 0.00 | 0.06 | 56 | 1008.3 |
| 20260902200902 | 88 | 110 | 0.0 | 1.0 | 0.00 | 0.00 | 0.06 | 55 | 1008.6 |
| 20260902195902 | 89 | 71 | 0.0 | 1.0 | 0.00 | 0.00 | 0.06 | 54 | 1008.8 |
| 20260902194902 | 89 | 46 | 0.0 | 1.0 | 0.00 | 0.00 | 0.06 | 55 | 1008.9 |
| 20260902193902 | 90 | 165 | 0.0 | 0.0 | 0.00 | 0.00 | 0.06 | 53 | 1009.1 |
| 20260902193002 | 90 | 36 | 0.0 | 1.0 | 0.00 | 0.00 | 0.06 | 54 | 1008.9 |
| 20260902191902 | 90 | 115 | 1.0 | 3.0 | 0.00 | 0.00 | 0.06 | 54 | 1009.1 |
| 20260902190902 | 88 | 73 | 2.0 | 4.0 | 0.00 | 0.00 | 0.06 | 56 | 1009.0 |
| 20260902185902 | 88 | 122 | 1.0 | 3.0 | 0.00 | 0.00 | 0.06 | 57 | 1009.0 |
| 20260902184902 | 88 | 228 | 0.0 | 1.0 | 0.00 | 0.00 | 0.06 | 56 | 1009.0 |
| 20260902183902 | 88 | 222 | 1.0 | 2.0 | 0.00 | 0.00 | 0.06 | 56 | 1009.0 |
| 20260902182902 | 88 | 64 | 3.0 | 4.0 | 0.00 | 0.00 | 0.06 | 60 | 1009.1 |
| 20260902181902 | 86 | 75 | 3.0 | 6.0 | 0.00 | 0.00 | 0.06 | 61 | 1009.1 |
| 20260902180902 | 86 | 179 | 0.0 | 2.0 | 0.00 | 0.00 | 0.06 | 59 | 1009.4 |
| 20260902175902 | 84 | 18 | 1.0 | 2.0 | 0.00 | 0.00 | 0.06 | 64 | 1009.7 |
| 20260902174902 | 83 | 80 | 3.0 | 5.0 | 0.00 | 0.00 | 0.06 | 65 | 1010.0 |
| 20260902173902 | 82 | 185 | 0.0 | 2.0 | 0.00 | 0.00 | 0.06 | 67 | 1010.2 |
| 20260902172902 | 81 | 210 | 0.0 | 1.0 | 0.00 | 0.00 | 0.06 | 70 | 1010.5 |
| 20260902171901 | 81 | 201 | 0.0 | 0.0 | 0.00 | 0.00 | 0.06 | 69 | 1010.6 |
| 20260902170931 | 80 | 199 | 1.0 | 2.0 | 0.00 | 0.00 | 0.06 | 71 | 1010.3 |
| 20260902165902 | 80 | 129 | 2.0 | 3.0 | 0.00 | 0.00 | 0.06 | 70 | 1010.2 |